Location: Nemiskam
(49.4820°N, 111.2775°W)
Time: 09:42:21
(UTC+00:00)

Envisat - Pass Details

Date: 05 December 2022
Orbit: 763 x 765 km, 98.2° (Epoch: 28 January)

Event Time Altitude Azimuth Distance (km) Brightness Sun altitude
Rises 13:04:27 0° 5° (N) 3,246 6.2 -18.6°
Reaches altitude 10° 13:07:07 10° 352° (N) 2,315 5.3 -18.2°
Enters shadow 13:09:28 21° 329° (NNW) 1,701 4.4 -17.8°
